228  
ASUS44 KHUN 232210  
RWRHUN  
 
WEATHER ROUNDUP FOR THE TENNESSEE VALLEY  
NATIONAL WEATHER SERVICE HUNTSVILLE AL  
500 PM CDT SAT MAR 23 2019  
 
ALZ001>004-232300-  
NORTHWEST ALABAMA  
 
CITY SKY/WX TMP DP RH WIND PRES REMARKS
 
SHOALS AIRPORT FAIR 66 33 29 CALM 30.21F  

 
 
ALZ005>007-016-232300-  
NORTH CENTRAL ALABAMA  
 
CITY SKY/WX TMP DP RH WIND PRES REMARKS
 
CULLMAN AG STN N/A 66 N/A N/A SE3 N/A  
DECATUR AP FAIR 66 27 23 CALM 30.21F  
HUNTSVILLE AP FAIR 68 29 23 SW5 30.20F  
HUN NWS/UAH N/A 69 20 15 S2 N/A  
MERIDIANVILLE SUNNY 66 21 18 N5 30.21S  
VINEMONT AP FAIR 69 25 19 CALM 30.22F  

 
 
ALZ008>010-232300-  
NORTHEAST ALABAMA  
 
CITY SKY/WX TMP DP RH WIND PRES REMARKS
 
ALBERTVILLE FAIR 64 23 20 CALM 30.21S  
FORT PAYNE FAIR 68 20 16 N3 30.19S  
SCOTTSBORO AP FAIR 68 23 18 VRB3 30.21S  

 
 
TNZ076-096-097-232300-  
SOUTHEASTERN MIDDLE TENNESSEE  
 
CITY SKY/WX TMP DP RH WIND PRES REMARKS
 
FAYETTEVILLE SUNNY 64 21 19 CALM 30.20F  
TULLAHOMA SUNNY 64 14 14 N5 30.20F  
WINCHESTER SUNNY 66 19 16 N3 30.20S  

 
   
..SURROUNDING SITES
 
 
 
CITY SKY/WX TMP DP RH WIND PRES REMARKS
 
ATLANTA PTSUNNY 72 23 16 W6 30.20S  
ANNISTON FAIR 71 27 19 CALM 30.19S  
BIRMINGHAM CLOUDY 74 21 13 NW5 30.21S  
CHATTANOOGA FAIR 66 15 14 NW6 30.22S  
CORINTH FAIR 70 28 21 SE7 30.18F  
DALTON FAIR 66 18 15 N7 30.22S  
GADSDEN FAIR 69 28 21 SE3 30.21S  
GOLDEN TRNGL FAIR 71 36 27 SE6 30.18F  
HALEYVILLE FAIR 69 29 22 VRB5 30.21F  
JACKSON TN FAIR 68 31 25 SE6 30.19F  
MEMPHIS PTSUNNY 67 32 27 SE6 30.18S  
NASHVILLE PTSUNNY 65 16 15 E3 30.23F  
OXFORD MS FAIR 70 32 24 CALM 30.17F  
ROME FAIR 70 15 12 N3 30.19F  
SAVANNAH SUNNY 68 34 28 CALM 30.18F  
SELMER SUNNY 68 32 26 VRB6 30.18F  
TUPELO FAIR 71 32 23 S8 30.17F  
TUSCALOOSA FAIR 75 28 17 CALM 30.17F  

 
 
 
 
CLICK HERE TO GO TO PREVIOUS BULLETINS.

The Nexlab AL Page
The Nexlab TN Page Main Text Page